Temperature
20 20 20 19 19 19 19 18 18 18 17 17 17 17 17 17 17 17 17 17 17 17 17 17 17 16 16 16 16 16 16 16 16 16 16 16 16 16 16 16 16 16 16
20 20 19 19 19 19 18 18 18 18 17 17 17 17 17 17 17 17 17 17 17 17 17 17 16 16 16 16 16 16 16 16 16 16 16 16 16 16 16 16 16 16 16
20 20 19 19 19 19 18 18 18 18 17 17 17 17 17 17 17 17 17 17 17 17 17 17 16 16 16 16 16 16 16 16 16 16 16 16 16 16 16 16 16 16 16
20 19 19 19 19 19 19 18 18 17 17 17 17 17 17 17 17 17 17 17 17 17 16 16 16 16 16 16 16 16 16 16 16 16 16 16 16 16 16 17 16 16 16
19 19 19 19 19 19 19 18 18 17 17 17 17 17 17 17 17 17 17 17 17 17 16 16 16 16 16 16 16 16 16 16 16 16 16 16 16 16 16 17 17 17 17
19 19 19 19 19 19 18 18 17 17 17 17 17 17 17 17 17 17 17 17 17 17 16 16 16 16 16 16 16 16 16 16 16 16 16 16 16 16 16 17 17 17 17
19 19 19 18 18 18 18 17 17 17 17 17 16 16 17 17 17 17 17 17 17 17 16 16 16 16 16 16 16 16 16 16 16 16 16 16 16 16 16 16 17 17 17
18 18 19 18 18 18 17 17 17 17 17 17 16 16 16 17 17 17 17 17 17 17 16 16 16 16 16 16 16 16 16 16 16 16 16 16 16 16 16 16 16 16 16
18 19 18 18 18 17 17 17 17 17 17 17 16 16 16 16 17 17 17 17 17 16 16 16 16 16 16 16 16 15 15 15 15 15 15 16 16 16 16 16 16 16 16
18 18 18 18 18 18 17 17 17 17 17 16 16 16 16 16 16 16 17 16 16 16 16 16 16 16 16 16 15 15 15 15 15 15 15 15 16 16 16 16 16 15 15
18 18 18 18 18 18 17 17 17 17 16 16 16 16 16 16 16 16 16 16 16 16 16 16 16 16 16 15 15 15 15 15 15 15 15 15 15 15 15 15 15 15 15
19 19 19 18 18 18 17 17 17 17 16 16 16 16 16 16 16 16 16 16 16 16 16 16 16 16 15 15 15 15 15 15 15 15 15 15 15 15 15 15 15 15 15
18 18 18 18 18 18 18 17 17 17 16 16 16 16 16 16 16 16 16 16 16 16 16 16 16 16 15 15 15 15 15 15 15 15 15 15 14 14 14 14 14 14 14
19 19 18 18 18 18 18 17 17 17 17 16 16 16 16 16 16 16 16 16 16 16 16 16 16 15 15 15 15 15 15 15 15 15 14 14 14 14 14 14 14 14 14
18 19 19 19 18 18 18 17 17 17 17 16 16 16 16 16 16 16 16 16 16 16 16 15 15 15 15 15 15 15 15 15 14 14 14 14 14 14 14 14 13 13 13
18 19 19 19 18 18 18 17 17 17 17 17 17 16 16 16 16 16 16 15 15 15 15 15 15 15 15 15 14 14 14 14 14 14 14 13 13 13 13 13 13 13 12
18 19 19 19 18 18 18 18 17 17 17 17 16 16 16 16 16 16 15 15 15 15 15 15 15 15 14 14 14 14 14 14 13 13 13 13 13 12 12 12 12 12 11
19 19 19 19 18 18 18 17 17 17 17 16 16 16 16 16 16 16 15 15 15 15 15 14 14 14 14 14 14 14 13 13 13 12 12 12 12 12 11 11 11 11 10
18 18 18 18 18 18 18 17 17 17 16 16 16 16 16 16 16 15 15 15 15 14 14 14 14 14 13 13 13 13 13 12 12 12 11 11 11 10 10 10 10 9 9
18 18 18 18 18 18 17 17 17 17 16 16 16 16 15 15 15 15 14 14 14 14 14 13 13 13 12 12 12 12 12 11 11 11 10 10 10 9 9 9 8 8 7
17 17 17 17 17 17 17 17 16 16 16 16 15 15 15 15 14 14 14 14 13 13 13 12 12 11 11 11 11 11 11 11 10 10 9 9 8 8 8 8 7 7 6
16 16 16 16 16 16 16 16 15 15 15 15 15 15 14 14 14 13 13 13 13 13 12 11 11 10 10 10 10 10 10 9 9 9 8 7 7 7 7 6 6 6 5
15 15 15 15 15 15 15 15 14 14 14 14 14 14 14 13 13 13 12 12 12 11 11 10 10 10 9 9 9 9 8 8 8 7 7 6 6 6 6 5 5 5 5
14 14 14 14 14 14 14 14 14 13 13 13 13 13 13 12 12 11 11 11 11 10 10 10 10 9 8 8 8 7 7 7 7 6 6 5 5 5 5 4 4 4 4
13 13 13 13 13 13 13 13 13 13 13 12 12 12 12 11 11 10 10 10 9 9 10 9 9 8 8 7 7 6 6 6 6 5 5 5 5 4 4 4 3 3 3
13 13 13 12 12 12 12 12 12 12 12 12 11 11 11 10 10 10 8 8 8 8 8 8 8 7 7 6 6 5 5 5 5 5 5 4 4 4 3 3 3 2 2
Wind_Speed
6 7 9 10 10 9 10 11 11 10 10 8 8 7 6 5 4 5 8 10 10 10 9 5 5 5 5 5 5 3 3 2 2 3 2 2 2 1 1 2 2 4 6
7 8 9 9 10 11 11 11 11 12 11 9 7 6 5 4 4 4 6 9 10 10 9 7 6 5 5 5 4 4 3 2 2 3 3 2 3 2 1 1 2 3 3
10 9 9 10 10 11 12 11 11 10 11 10 6 6 4 3 3 4 4 6 9 10 9 9 7 6 6 6 5 5 5 3 1 1 3 3 3 2 2 1 1 1 2
8 9 10 10 11 11 10 10 10 10 10 11 10 10 8 6 6 5 5 5 7 9 10 9 8 6 5 6 5 4 4 5 3 1 1 2 3 2 1 2 1 1 2
8 9 10 10 10 9 9 9 9 10 11 11 11 10 8 6 4 5 6 6 5 7 8 9 8 6 5 6 5 5 4 3 4 3 2 2 1 1 2 1 2 2 2
6 6 6 7 7 7 8 9 9 9 10 11 11 10 10 8 8 7 7 6 4 4 6 7 7 7 6 6 6 5 6 4 4 3 3 3 3 2 2 2 1 2 2
6 7 8 8 8 8 9 9 10 9 10 10 10 10 10 10 10 9 8 7 5 4 6 6 6 6 6 7 6 6 5 5 5 4 3 2 2 2 3 2 1 1 2
6 7 8 8 8 8 8 10 10 9 9 10 9 9 9 7 6 8 7 8 6 6 6 7 7 7 7 7 6 5 5 5 5 5 4 3 2 2 3 3 3 1 1
7 8 8 8 8 8 8 9 10 9 9 9 8 8 8 8 8 7 7 6 5 6 7 7 7 7 7 7 7 5 5 5 4 4 4 3 2 2 2 2 3 3 2
6 7 8 8 8 7 7 8 8 9 9 9 8 8 7 7 7 7 8 8 7 7 8 7 7 7 6 6 6 5 4 5 4 3 4 3 2 2 2 2 2 2 3
8 8 7 8 8 7 7 7 7 7 8 8 8 7 7 6 6 7 8 8 7 8 8 8 7 7 7 7 6 6 6 6 4 4 4 3 3 2 2 2 2 2 2
8 8 7 8 8 8 8 8 8 7 8 8 7 7 7 7 7 7 7 7 8 8 8 8 7 7 7 7 7 7 6 6 6 5 4 4 3 3 2 2 2 2 2
7 7 7 7 8 8 7 7 7 7 6 7 7 7 7 8 8 7 6 7 7 7 7 7 7 7 7 7 6 6 6 5 5 5 5 4 4 3 2 2 2 1 1
8 8 7 7 7 6 6 6 6 6 7 7 7 7 7 7 7 6 6 7 7 7 7 6 6 6 6 6 6 6 6 5 4 4 4 4 4 3 3 2 2 2 2
7 7 8 7 7 6 6 6 6 7 7 8 7 7 7 7 7 6 6 6 7 7 6 6 6 5 5 5 6 6 6 7 6 6 5 5 6 6 5 3 3 3 3
6 6 7 7 7 7 7 7 6 7 7 8 8 7 7 7 7 7 7 7 7 7 7 6 6 5 4 6 8 8 7 7 7 7 6 6 8 10 11 11 9 7 4
5 6 6 6 6 7 8 8 7 7 8 8 7 7 8 8 7 8 8 8 7 7 7 7 7 6 6 8 10 11 9 8 7 6 6 6 7 8 9 12 15 14 14
4 4 5 5 6 6 6 6 7 7 7 7 7 7 8 8 8 8 8 8 7 8 8 8 8 8 8 10 12 13 11 10 9 8 7 7 7 7 8 9 11 11 10
2 3 4 4 5 7 8 8 7 7 7 7 7 7 8 9 9 9 8 8 9 9 8 8 9 10 9 12 13 13 11 11 10 9 9 9 9 10 10 10 10 9 8
2 3 4 5 5 5 7 8 8 8 8 8 8 8 8 9 10 10 9 9 9 10 11 11 10 10 9 11 13 13 9 11 9 9 10 12 11 12 11 9 9 8 6
4 4 5 4 4 5 7 8 7 7 7 8 8 9 9 9 10 10 10 11 12 12 12 12 11 10 10 11 12 11 8 9 10 8 8 8 13 13 13 10 8 7 5
5 5 5 5 4 5 7 7 6 6 8 9 10 10 10 10 10 12 11 11 12 13 12 12 11 9 9 11 13 14 13 11 10 9 7 8 13 13 12 9 9 9 7
5 5 6 6 6 5 7 8 6 8 10 11 11 11 12 11 10 12 12 10 10 10 10 10 9 8 8 10 15 15 15 14 10 9 11 11 12 12 10 12 11 8 6
5 5 7 8 7 7 8 10 9 9 11 12 12 11 12 12 11 9 9 9 9 9 10 9 9 9 8 7 7 8 10 12 11 10 11 13 13 10 9 9 8 7 6
6 6 7 9 9 9 9 10 10 12 14 14 13 12 12 13 12 12 10 9 7 7 10 9 9 9 8 6 8 8 7 7 8 8 6 6 6 7 6 6 6 5 5
7 8 9 10 10 10 11 10 10 12 14 13 12 11 11 11 12 13 14 18 15 17 16 13 11 9 10 12 13 13 12 11 10 8 6 6 6 5 5 4 4 4 5
Wind_Direction
177 158 153 156 157 165 172 176 174 171 168 167 170 171 177 173 177 184 184 182 180 176 170 165 160 161 160 162 150 125 115 100 108 91 50 20 24 32 259 244 238 238 235
170 162 158 161 167 177 181 183 182 177 176 177 174 170 163 166 175 178 177 181 177 177 177 168 169 166 153 147 151 136 123 106 111 121 98 34 354 345 342 262 238 245 237
182 175 170 172 173 180 186 189 185 180 176 167 153 142 128 117 147 173 175 184 179 180 177 174 167 165 161 163 165 156 145 142 111 111 138 144 214 289 321 309 276 258 236
181 179 180 181 183 187 186 183 179 176 173 166 166 167 170 177 185 180 177 174 176 177 176 172 168 164 162 161 168 163 152 143 147 121 98 137 151 151 304 320 317 289 248
185 184 185 187 184 180 179 180 175 175 170 170 174 177 175 179 167 159 166 172 172 175 173 168 164 163 164 163 158 153 154 150 154 156 146 124 96 117 151 265 318 327 296
188 183 178 172 171 168 167 167 169 172 169 169 174 179 175 170 164 166 172 173 170 172 170 168 167 167 166 166 164 160 159 154 147 153 156 155 156 172 164 185 248 290 306
186 180 173 170 167 163 162 161 165 167 166 169 177 182 179 178 178 176 176 173 174 179 180 174 171 170 171 167 159 157 161 159 156 161 165 162 161 153 151 151 169 272 312
177 174 177 172 168 163 161 161 165 167 169 175 183 183 180 180 182 181 175 179 183 181 173 172 174 173 169 164 157 154 163 163 164 167 160 153 163 162 163 159 151 138 329
173 169 169 169 167 165 167 166 165 167 171 177 179 180 180 181 181 180 174 176 175 171 169 172 172 169 165 161 156 158 163 159 166 167 163 156 159 166 169 160 159 157 191
173 167 168 165 164 165 162 161 165 171 174 175 180 183 183 182 179 177 178 179 176 168 166 169 167 165 163 160 156 154 158 156 162 161 157 152 147 148 151 159 160 162 170
175 173 168 164 158 157 159 163 168 171 175 177 178 179 180 178 173 178 183 179 174 169 170 171 168 168 167 164 163 164 162 163 162 158 158 159 147 144 149 141 146 159 164
167 165 164 161 163 165 168 171 175 181 183 177 174 178 177 174 174 183 181 172 170 172 172 168 168 173 172 170 171 169 167 167 169 167 158 163 150 140 139 140 153 169 183
153 155 161 168 170 170 170 172 176 180 176 172 173 174 173 172 175 178 170 162 162 164 164 164 168 171 171 170 171 166 163 164 164 159 157 159 146 140 133 130 135 141 148
156 159 165 169 167 165 165 169 174 173 168 165 168 170 172 169 166 161 156 154 153 154 156 158 159 162 164 165 163 156 149 144 137 132 131 132 137 139 134 120 114 111 101
160 165 169 170 163 161 163 172 168 164 162 157 159 162 155 146 140 139 140 139 142 149 146 142 139 143 151 162 157 151 145 133 119 103 98 98 99 99 99 100 99 101 97
174 171 167 166 165 167 168 169 167 161 154 154 156 149 138 136 137 138 133 130 128 125 122 125 130 131 143 143 145 138 129 125 119 109 94 85 81 83 80 79 75 75 84
170 173 173 174 171 168 164 168 170 156 152 153 150 149 146 145 144 140 131 132 130 120 114 114 113 109 105 119 123 123 119 111 107 103 97 89 80 82 86 79 71 63 60
174 176 173 172 169 158 151 151 150 151 152 149 148 146 144 143 137 131 129 127 118 115 112 108 107 104 98 102 108 110 104 97 90 89 93 95 86 85 93 89 79 70 59
174 170 165 162 158 156 154 145 145 148 151 153 152 152 149 144 137 132 127 123 117 109 104 101 103 102 94 97 105 105 102 96 86 79 79 87 84 79 90 92 86 75 61
85 116 125 127 139 150 149 144 148 150 157 158 154 147 143 140 135 130 122 112 109 107 101 93 89 93 92 94 102 106 108 103 95 83 75 74 82 80 81 87 88 79 58
75 90 108 115 130 137 138 143 148 155 154 143 134 129 128 126 124 121 117 115 111 105 98 92 81 79 80 80 86 95 106 110 104 93 83 77 80 80 79 81 83 88 85
70 85 96 96 101 121 130 130 134 128 122 122 121 120 117 117 120 117 113 113 113 109 104 98 86 73 71 76 82 83 89 99 102 98 93 89 84 80 77 78 80 78 74
63 77 98 94 84 93 115 118 113 116 117 114 112 111 107 105 111 116 116 112 110 110 109 105 99 87 78 75 76 82 88 91 95 96 97 92 87 80 73 69 68 66 66
65 77 99 102 94 90 97 106 110 114 111 107 104 104 104 99 94 93 99 108 112 114 112 109 106 98 88 85 86 88 90 90 94 94 88 82 74 72 66 59 55 54 57
71 76 87 95 96 96 97 101 107 109 105 101 100 98 97 98 91 82 74 82 75 105 116 113 113 112 105 97 103 108 104 107 111 106 91 81 76 69 61 56 49 45 44
87 87 87 91 93 95 94 92 98 105 108 105 101 100 101 100 100 97 83 64 74 77 81 92 103 94 103 108 100 98 100 103 109 99 91 85 79 74 65 57 48 39 32
Height
1476 1478 1481 1485 1489 1493 1497 1500 1503 1508 1512 1516 1520 1525 1529 1534 1538 1541 1544 1547 1550 1553 1555 1557 1559 1561 1563 1565 1566 1568 1569 1571 1572 1574 1575 1576 1577 1578 1579 1579 1580 1581 1582
1474 1476 1479 1483 1486 1489 1493 1497 1501 1505 1509 1513 1518 1522 1527 1531 1535 1539 1542 1545 1548 1551 1553 1556 1558 1560 1562 1564 1565 1567 1569 1570 1572 1573 1574 1576 1578 1577 1578 1579 1579 1580 1581
1471 1475 1478 1481 1484 1487 1491 1494 1498 1502 1506 1511 1516 1521 1525 1529 1533 1536 1539 1543 1546 1549 1552 1554 1557 1559 1561 1562 1564 1566 1568 1569 1571 1572 1574 1575 1575 1576 1577 1578 1578 1579 1580
1470 1473 1475 1478 1481 1484 1487 1491 1495 1499 1503 1508 1513 1517 1521 1525 1529 1533 1537 1541 1544 1547 1550 1553 1555 1557 1559 1561 1563 1565 1567 1568 1570 1571 1573 1574 1575 1576 1576 1577 1577 1578 1579
1469 1471 1474 1476 1479 1482 1485 1489 1493 1497 1501 1506 1510 1515 1519 1524 1528 1532 1535 1539 1542 1545 1548 1550 1553 1555 1558 1560 1562 1563 1565 1567 1568 1570 1571 1573 1574 1574 1575 1575 1576 1577 1578
1468 1470 1473 1476 1478 1481 1483 1486 1490 1494 1498 1503 1508 1512 1516 1521 1525 1529 1532 1536 1540 1543 1545 1548 1551 1553 1556 1558 1560 1562 1564 1565 1567 1569 1570 1571 1572 1573 1574 1575 1575 1576 1576
1467 1469 1472 1474 1476 1479 1482 1485 1489 1492 1496 1501 1505 1510 1514 1518 1522 1526 1530 1533 1537 1540 1543 1545 1548 1551 1554 1556 1558 1560 1562 1564 1565 1567 1568 1570 1571 1572 1573 1574 1574 1574 1575
1465 1468 1471 1473 1476 1478 1481 1484 1488 1491 1495 1499 1503 1508 1512 1516 1520 1524 1527 1531 1534 1538 1541 1543 1546 1549 1552 1554 1556 1558 1560 1562 1564 1565 1567 1568 1569 1570 1571 1572 1573 1573 1573
1464 1467 1470 1472 1475 1478 1481 1484 1487 1490 1493 1497 1502 1506 1510 1514 1518 1521 1525 1528 1532 1535 1538 1541 1544 1547 1549 1552 1554 1556 1558 1560 1562 1563 1565 1566 1567 1569 1570 1570 1571 1572 1571
1464 1466 1469 1471 1474 1477 1480 1484 1486 1489 1492 1496 1499 1503 1508 1511 1515 1519 1522 1526 1529 1532 1535 1539 1541 1544 1547 1549 1552 1554 1556 1558 1560 1561 1563 1564 1565 1566 1567 1568 1568 1569 1569
1463 1465 1468 1470 1473 1476 1479 1482 1485 1488 1491 1494 1498 1501 1505 1509 1513 1516 1520 1523 1527 1530 1533 1536 1539 1542 1544 1547 1549 1552 1554 1556 1557 1559 1561 1562 1563 1564 1565 1565 1566 1566 1567
1463 1465 1467 1470 1473 1475 1477 1480 1483 1486 1489 1492 1495 1499 1503 1507 1510 1514 1517 1521 1524 1528 1531 1534 1537 1540 1542 1545 1548 1550 1552 1554 1555 1557 1558 1560 1561 1562 1562 1563 1563 1563 1564
1462 1465 1467 1469 1472 1474 1476 1479 1482 1485 1487 1490 1494 1498 1501 1505 1508 1512 1515 1518 1522 1525 1529 1532 1535 1538 1540 1543 1546 1548 1550 1552 1553 1555 1556 1557 1558 1559 1560 1560 1560 1561 1561
1461 1463 1466 1469 1471 1473 1475 1478 1480 1483 1486 1489 1493 1496 1499 1503 1506 1510 1514 1517 1520 1523 1526 1529 1532 1535 1539 1541 1544 1546 1548 1550 1551 1552 1554 1555 1556 1557 1557 1557 1557 1557 1557
1459 1462 1464 1467 1470 1472 1475 1477 1480 1482 1485 1488 1491 1494 1498 1501 1505 1509 1512 1515 1518 1522 1525 1528 1530 1533 1536 1539 1541 1544 1546 1547 1549 1550 1551 1552 1553 1554 1554 1555 1554 1554 1554
1458 1461 1463 1466 1469 1471 1474 1477 1479 1482 1485 1488 1491 1494 1497 1500 1504 1508 1511 1514 1517 1520 1523 1526 1529 1531 1534 1536 1539 1541 1543 1545 1546 1547 1549 1550 1551 1551 1552 1552 1551 1552 1551
1457 1460 1462 1465 1467 1470 1473 1476 1479 1482 1485 1488 1491 1494 1497 1500 1504 1507 1510 1513 1516 1519 1522 1524 1527 1530 1532 1535 1537 1539 1541 1542 1544 1545 1547 1548 1548 1549 1549 1549 1549 1549 1549
1456 1459 1461 1464 1466 1469 1472 1475 1478 1481 1484 1487 1490 1493 1497 1500 1503 1506 1508 1512 1515 1518 1520 1523 1526 1528 1531 1533 1535 1536 1538 1540 1542 1543 1545 1546 1546 1547 1547 1547 1546 1546 1546
1456 1458 1460 1463 1465 1468 1471 1474 1477 1479 1483 1486 1488 1492 1495 1499 1501 1504 1507 1510 1513 1516 1519 1522 1525 1527 1529 1532 1534 1535 1536 1538 1540 1542 1543 1544 1545 1545 1545 1545 1545 1544 1544
1454 1456 1459 1461 1464 1467 1469 1472 1474 1477 1480 1484 1487 1490 1494 1497 1500 1503 1506 1509 1512 1515 1517 1520 1523 1526 1528 1531 1533 1535 1536 1537 1539 1540 1541 1542 1543 1544 1544 1544 1544 1544 1543
1454 1456 1458 1460 1463 1466 1468 1470 1473 1475 1479 1483 1486 1489 1493 1495 1498 1501 1504 1507 1510 1513 1516 1519 1523 1526 1528 1531 1533 1535 1536 1537 1538 1539 1540 1541 1543 1543 1543 1543 1543 1543 1543
1454 1456 1458 1459 1462 1464 1467 1470 1472 1475 1478 1481 1484 1487 1491 1494 1497 1500 1503 1507 1510 1513 1516 1519 1522 1526 1529 1531 1533 1535 1537 1537 1538 1539 1541 1542 1543 1543 1543 1543 1542 1542 1542
1455 1457 1458 1460 1462 1464 1466 1469 1472 1475 1477 1480 1483 1486 1490 1493 1497 1500 1503 1507 1510 1513 1517 1520 1523 1526 1529 1532 1534 1536 1537 1538 1539 1540 1541 1543 1543 1544 1544 1543 1543 1542 1541
1457 1458 1459 1460 1462 1464 1466 1469 1472 1474 1477 1480 1484 1487 1489 1493 1497 1501 1505 1508 1512 1515 1518 1521 1524 1527 1530 1532 1535 1536 1538 1539 1540 1541 1543 1544 1544 1544 1544 1544 1543 1542 1540
1458 1459 1460 1461 1463 1465 1467 1469 1472 1475 1478 1481 1484 1488 1491 1495 1499 1503 1507 1511 1514 1517 1520 1522 1525 1527 1530 1533 1536 1538 1539 1541 1542 1543 1544 1544 1544 1544 1544 1543 1543 1542 1540
1460 1461 1462 1463 1465 1467 1469 1471 1474 1477 1479 1482 1486 1490 1494 1498 1501 1504 1509 1513 1517 1520 1523 1525 1528 1530 1533 1535 1537 1539 1541 1542 1543 1544 1544 1544 1544 1544 1544 1543 1542 1541 1539